When you browse on this site, cookies collect data to enhance your experience and personalize the content and advertising you see.
Visit our Privacy Policy to learn more. By continuing to use the site, you agree to this use of cookies and data.
  • Em Portugal
  • Lista de países
  • Para 7 dias
  • Temperatura da água
  • Mapas de satélite
  • Mapa do tempo
  • Widgets de tempo
  • user-avatar
    Iniciar Sessão

    Previsão horária em Pekaninko

    Hoje, 25 Maio, Sábado

    Tempo Temperatura Precipitação Vento Pressão Humidade
    00:00 +11°C° 0 mm 3 m/s 756 mmHg 91%
    01:00 +10°C° 0 mm 3 m/s 756 mmHg 94%
    02:00 +10°C° 0 mm 3 m/s 756 mmHg 95%
    03:00 +9°C° 0 mm 3 m/s 756 mmHg 96%
    04:00 +8°C° 0 mm 3 m/s 756 mmHg 96%
    05:00 +8°C° 0 mm 4 m/s 756 mmHg 92%
    06:00 +10°C° 0 mm 4 m/s 756 mmHg 87%
    07:00 +10°C° 0 mm 5 m/s 756 mmHg 83%
    08:00 +12°C° 0 mm 5 m/s 757 mmHg 80%
    09:00 +12°C° 0 mm 5 m/s 757 mmHg 77%
    10:00 +13°C° 0 mm 5 m/s 757 mmHg 73%
    11:00 +13°C° 0 mm 5 m/s 757 mmHg 74%
    12:00 +13°C° 0 mm 5 m/s 757 mmHg 74%
    13:00 +13°C° 0 mm 5 m/s 757 mmHg 74%
    14:00 +13°C° 0 mm 5 m/s 757 mmHg 74%
    15:00 +12°C° 0 mm 5 m/s 757 mmHg 75%
    16:00 +12°C° 0 mm 5 m/s 757 mmHg 76%
    17:00 +12°C° 0 mm 5 m/s 757 mmHg 77%
    18:00 +12°C° 0 mm 4 m/s 757 mmHg 79%
    19:00 +11°C° 0 mm 4 m/s 757 mmHg 80%
    20:00 +11°C° 0 mm 4 m/s 757 mmHg 83%
    21:00 +10°C° 0 mm 4 m/s 757 mmHg 86%
    22:00 +10°C° 0 mm 4 m/s 757 mmHg 89%
    23:00 +8°C° 0 mm 4 m/s 757 mmHg 91%

    Amanhã, 26 Maio, Domingo

    Tempo Temperatura Precipitação Vento Pressão Humidade
    00:00 +8°C° 0 mm 4 m/s 757 mmHg 93%
    01:00 +8°C° 0 mm 5 m/s 757 mmHg 95%
    02:00 +8°C° 0 mm 4 m/s 757 mmHg 95%
    03:00 +7°C° 0 mm 4 m/s 756 mmHg 96%
    04:00 +7°C° 0 mm 4 m/s 756 mmHg 97%
    05:00 +8°C° 0 mm 5 m/s 756 mmHg 91%
    06:00 +9°C° 0 mm 5 m/s 756 mmHg 86%
    07:00 +10°C° 0 mm 5 m/s 756 mmHg 80%
    08:00 +11°C° 0 mm 6 m/s 756 mmHg 76%
    09:00 +13°C° 0 mm 6 m/s 756 mmHg 71%
    10:00 +14°C° 0 mm 6 m/s 755 mmHg 67%
    11:00 +14°C° 0.1 mm 6 m/s 755 mmHg 70%
    12:00 +14°C° 0.1 mm 6 m/s 755 mmHg 73%
    13:00 +14°C° 0.1 mm 6 m/s 755 mmHg 76%
    14:00 +14°C° 0.2 mm 5 m/s 754 mmHg 80%
    15:00 +14°C° 0.2 mm 5 m/s 754 mmHg 84%
    16:00 +13°C° 0.2 mm 4 m/s 754 mmHg 88%
    17:00 +13°C° 0.1 mm 4 m/s 754 mmHg 90%
    18:00 +13°C° 0.1 mm 5 m/s 753 mmHg 91%
    19:00 +13°C° 0.1 mm 5 m/s 753 mmHg 92%
    20:00 +13°C° 0 mm 4 m/s 753 mmHg 93%
    21:00 +13°C° 0 mm 4 m/s 753 mmHg 94%
    22:00 +13°C° 0 mm 4 m/s 753 mmHg 95%
    23:00 +13°C° 0.8 mm 4 m/s 753 mmHg 95%

    Depois de amanhã, 27 Maio, Segunda-feira

    Tempo Temperatura Precipitação Vento Pressão Humidade
    00:00 +13°C° 0.8 mm 4 m/s 753 mmHg 96%
    01:00 +14°C° 0.8 mm 4 m/s 752 mmHg 96%
    02:00 +14°C° 1.1 mm 5 m/s 752 mmHg 96%
    03:00 +14°C° 1.1 mm 6 m/s 751 mmHg 95%
    04:00 +14°C° 1.1 mm 7 m/s 751 mmHg 95%
    05:00 +14°C° 0.9 mm 6 m/s 751 mmHg 95%
    06:00 +14°C° 0.9 mm 6 m/s 751 mmHg 95%
    07:00 +15°C° 0.9 mm 6 m/s 751 mmHg 95%
    08:00 +15°C° 0.4 mm 5 m/s 751 mmHg 93%
    09:00 +16°C° 0.4 mm 5 m/s 751 mmHg 91%
    10:00 +16°C° 0.4 mm 5 m/s 752 mmHg 89%
    11:00 +17°C° 0.5 mm 4 m/s 752 mmHg 89%
    12:00 +17°C° 0.5 mm 4 m/s 752 mmHg 88%
    13:00 +17°C° 0.5 mm 4 m/s 752 mmHg 88%
    14:00 +17°C° 0.7 mm 4 m/s 752 mmHg 87%
    15:00 +17°C° 0.7 mm 4 m/s 752 mmHg 86%
    16:00 +15°C° 0.7 mm 4 m/s 752 mmHg 85%
    17:00 +14°C° 0 mm 3 m/s 752 mmHg 85%
    18:00 +14°C° 0 mm 3 m/s 753 mmHg 86%
    19:00 +13°C° 0 mm 3 m/s 753 mmHg 86%
    20:00 +13°C° 0 mm 2 m/s 753 mmHg 88%
    21:00 +10°C° 0 mm 2 m/s 754 mmHg 91%
    22:00 +10°C° 0 mm 1 m/s 754 mmHg 93%
    23:00 +10°C° 0 mm 1 m/s 754 mmHg 94%

    28 Maio, Terça-feira

    Tempo Temperatura Precipitação Vento Pressão Humidade
    00:00 +9°C° 0 mm 2 m/s 754 mmHg 94%
    01:00 +9°C° 0 mm 2 m/s 754 mmHg 94%
    02:00 +8°C° 0 mm 2 m/s 754 mmHg 94%
    03:00 +8°C° 0 mm 2 m/s 754 mmHg 94%
    04:00 +8°C° 0 mm 2 m/s 754 mmHg 94%
    05:00 +10°C° 0 mm 2 m/s 754 mmHg 90%
    06:00 +12°C° 0 mm 2 m/s 754 mmHg 86%
    07:00 +14°C° 0 mm 2 m/s 755 mmHg 82%
    08:00 +15°C° 0 mm 2 m/s 755 mmHg 76%
    09:00 +16°C° 0 mm 2 m/s 755 mmHg 70%
    10:00 +17°C° 0 mm 3 m/s 755 mmHg 64%
    11:00 +17°C° 0 mm 3 m/s 755 mmHg 63%
    12:00 +17°C° 0 mm 3 m/s 755 mmHg 62%
    13:00 +17°C° 0 mm 4 m/s 755 mmHg 62%
    14:00 +15°C° 0 mm 4 m/s 755 mmHg 66%
    15:00 +14°C° 0 mm 5 m/s 755 mmHg 70%
    16:00 +13°C° 0 mm 5 m/s 756 mmHg 74%
    17:00 +12°C° 0 mm 4 m/s 756 mmHg 75%
    18:00 +11°C° 0 mm 4 m/s 756 mmHg 75%
    19:00 +10°C° 0 mm 3 m/s 756 mmHg 76%
    20:00 +10°C° 0 mm 3 m/s 757 mmHg 77%
    21:00 +9°C° 0 mm 3 m/s 757 mmHg 79%
    22:00 +9°C° 0 mm 3 m/s 757 mmHg 81%
    23:00 +8°C° 0 mm 3 m/s 758 mmHg 83%

    29 Maio, Quarta-feira

    Tempo Temperatura Precipitação Vento Pressão Humidade
    00:00 +8°C° 0 mm 3 m/s 758 mmHg 85%
    01:00 +7°C° 0 mm 3 m/s 758 mmHg 88%
    02:00 +6°C° 0 mm 4 m/s 758 mmHg 85%
    03:00 +7°C° 0 mm 4 m/s 759 mmHg 83%
    04:00 +7°C° 0 mm 4 m/s 759 mmHg 80%
    05:00 +7°C° 0 mm 5 m/s 759 mmHg 76%
    06:00 +8°C° 0 mm 5 m/s 760 mmHg 72%
    07:00 +9°C° 0 mm 6 m/s 760 mmHg 67%
    08:00 +9°C° 0 mm 6 m/s 761 mmHg 65%
    09:00 +10°C° 0 mm 6 m/s 761 mmHg 63%
    10:00 +10°C° 0 mm 6 m/s 762 mmHg 60%
    11:00 +11°C° 0 mm 6 m/s 762 mmHg 59%
    12:00 +11°C° 0 mm 6 m/s 762 mmHg 58%
    13:00 +12°C° 0 mm 7 m/s 763 mmHg 57%
    14:00 +13°C° 0 mm 6 m/s 763 mmHg 58%
    15:00 +11°C° 0 mm 6 m/s 763 mmHg 59%
    16:00 +11°C° 0 mm 6 m/s 764 mmHg 60%
    17:00 +12°C° 0 mm 5 m/s 764 mmHg 65%
    18:00 +11°C° 0 mm 4 m/s 764 mmHg 70%
    19:00 +10°C° 0 mm 3 m/s 765 mmHg 74%
    20:00 +9°C° 0 mm 3 m/s 765 mmHg 79%
    21:00 +8°C° 0 mm 3 m/s 765 mmHg 84%
    22:00 +6°C° 0 mm 2 m/s 766 mmHg 89%
    23:00 +6°C° 0 mm 2 m/s 766 mmHg 89%

    30 Maio, Quinta-feira

    Tempo Temperatura Precipitação Vento Pressão Humidade
    00:00 +6°C° 0 mm 2 m/s 766 mmHg 90%
    01:00 +5°C° 0 mm 3 m/s 766 mmHg 90%
    02:00 +4°C° 0 mm 3 m/s 766 mmHg 89%
    03:00 +4°C° 0 mm 3 m/s 766 mmHg 89%
    04:00 +4°C° 0 mm 4 m/s 766 mmHg 88%
    05:00 +6°C° 0 mm 4 m/s 766 mmHg 82%
    06:00 +8°C° 0 mm 5 m/s 766 mmHg 76%
    07:00 +10°C° 0 mm 5 m/s 766 mmHg 70%
    08:00 +13°C° 0 mm 6 m/s 765 mmHg 66%
    09:00 +14°C° 0 mm 6 m/s 765 mmHg 62%
    10:00 +15°C° 0 mm 6 m/s 765 mmHg 58%
    11:00 +16°C° 0 mm 6 m/s 764 mmHg 56%
    12:00 +17°C° 0 mm 6 m/s 764 mmHg 54%
    13:00 +19°C° 0 mm 6 m/s 763 mmHg 52%
    14:00 +19°C° 0 mm 6 m/s 762 mmHg 53%
    15:00 +19°C° 0 mm 6 m/s 762 mmHg 54%
    16:00 +19°C° 0 mm 6 m/s 761 mmHg 55%
    17:00 +17°C° 0.1 mm 5 m/s 761 mmHg 61%
    18:00 +15°C° 0.1 mm 4 m/s 761 mmHg 68%
    19:00 +14°C° 0.1 mm 4 m/s 760 mmHg 74%
    20:00 +14°C° 0.1 mm 4 m/s 760 mmHg 76%
    21:00 +13°C° 0.1 mm 4 m/s 760 mmHg 78%
    22:00 +13°C° 0.1 mm 4 m/s 760 mmHg 80%
    23:00 +13°C° 0.1 mm 5 m/s 760 mmHg 85%
    Mostrar mais